Regional Weather Roundup
Issued by NWS Cleveland, OH

Home | Current Version | Previous Version | Graphics & Text | Print | Product List | Glossary On
Versions: 1 2 3 4 5 6 7 8 9 10 11 12 13 14 15 16 17 18 19 20 21 22 23 24 25 26 27 28 29 30 31 32 33 34 35 36 37 38 39 40 41 42 43 44 45 46 47 48 49 50
000
ASUS41 KCLE 231410
RWRCLE
OHIO REGIONAL WEATHER ROUNDUP
NATIONAL WEATHER SERVICE WILMINGTON, OH
1000 AM EDT SAT JUL 23 2016

NOTE: "FAIR" INDICATES FEW OR NO CLOUDS BELOW 12,000 FEET WITH NO
SIGNIFICANT WEATHER AND/OR OBSTRUCTIONS TO VISIBILITY.

OHZ001>008-015>018-024>027-034-035-043-044-231500-
   NORTHWEST OHIO

CITY           SKY/WX    TMP DP  RH WIND       PRES   REMARKS
DEFIANCE       FAIR      82  71  69 CALM      30.01S
FINDLAY        FAIR      83  69  62 W6        30.01S
TOLEDO EXPRESS FAIR      81  73  76 VRB5      30.00F
TOLEDO EXEC    FAIR      82  72  71 NW3       30.01S
LIMA           FAIR      80  74  81 VRB3      30.03R
$$

OHZ009>014-019>023-028>033-038-089-231500-
   NORTHEAST OHIO

CITY           SKY/WX    TMP DP  RH WIND       PRES   REMARKS
CLE-HOPKINS    FAIR      84  72  67 SW3       30.01F
CLE-LAKEFRONT  FAIR      81  74  79 W7        29.98F
CUY CO. ARPT   MOSUNNY   84  73  70 NW7       30.01S HX  91
LORAIN-ELYRIA  FAIR      83  72  69 W3        30.01S
ASHTABULA      FAIR      81  74  79 VRB3      30.01S
AKRON-CANTON   FAIR      84  71  65 SW6       30.02S
WOOSTER        FAIR      83  72  69 CALM      30.03S
MANSFIELD      FAIR      83  73  72 N3        30.04R
YOUNGSTOWN     PTSUNNY   81  72  74 NW3       30.01F
$$

OHZ042-051>053-060>062-070>072-077>081-231500-
  SOUTHWEST OHIO

CITY           SKY/WX    TMP DP  RH WIND       PRES   REMARKS
CINC-COVINGTON FAIR      80  75  84 SE3       30.05R
CINC-LUNKEN    PTSUNNY   78  75  90 VRB3      30.04S
HAMILTON       FAIR      83  74  74 CALM      30.04R
DAYTON         FAIR      81  72  74 NW6       30.05S
WRIGHT-PAT AFB FAIR      80  75  85 VRB1      30.03S
DAYTON GENERAL FAIR      82  71  69 CALM      30.03S
WILMINGTON     FAIR      81  74  79 CALM      30.04S
$$

OHZ036-037-039>041-045>050-054>059-063>069-073>076-082>088-231500-
  CENTRAL AND SOUTHEAST OHIO

CITY           SKY/WX    TMP DP  RH WIND       PRES   REMARKS
COLUMBUS       FAIR      79  72  79 S7        30.02S
OSU AIRPORT    FAIR      83  73  72 CALM      30.03S
BOLTON FIELD   SUNNY     77  73  88 S5        30.04R
RICKENBACK AFB FAIR      77  72  84 CALM      30.02F
NEWARK         FAIR      80  73  79 CALM      30.02S
MARION         FAIR      82  72  71 CALM      30.04R
LANCASTER      FAIR      81  74  79 CALM      30.04R
ZANESVILLE     FAIR      83  72  69 VRB3      30.03S
NEW PHILLY     FAIR      82  72  71 VRB3      30.03R
$$



USA.gov is the U.S. government's official web portal to all federal, state and local government web resources and services.